Agadir Al Massira, Morocco

8:52 AM WET on January 22, 2018 (GMT +0000)
Agadir Al Massira

Weather History for GMAD - November, 2012

Change the Weather History Date:

Wednesday, November 21, 2012

  Actual Average Record
Temperature  
Mean Temperature 60 °F -  
Max Temperature 73 °F - - ()
Min Temperature 46 °F - - ()
Degree Days  
Heating Degree Days 6    
Growing Degree Days 10 (Base 50)    
Moisture  
Dew Point 53 °F    
Average Humidity 77    
Maximum Humidity 94    
Minimum Humidity 41    
Precipitation  
Precipitation 0.00 in - - ()
Sea Level Pressure  
Sea Level Pressure 30.02 in    
Wind  
Wind Speed 5 mph ()    
Max Wind Speed 14 mph    
Max Gust Speed -    
Visibility 6.0 miles    
Events      
T = Trace of Precipitation, MM = Missing Value Source: Averaged Metar Reports

Daily Weather History Graph

Daily Weather History Graph

Search for Another Location

Airport or City:

Trip Planner

Search our weather history database for the weather conditions in past years. The results will help you decide how hot, cold, wet, or windy it might be!

Date:

Astronomy

Nov. 21, 2012 Rise Set
Actual Time 7:08 AM WET 5:38 PM WET
Civil Twilight 6:42 AM WET 6:04 PM WET
Nautical Twilight 6:13 AM WET 6:33 PM WET
Astronomical Twilight 5:44 AM WET 7:02 PM WET
Moon 1:23 PM WET (11/21) 12:40 AM WET (11/21)
Length of Visible Light 11h 21m
Length of Day
10h 29m
First Quarter, 59% of the Moon is Illuminated
Nov 21
First Quarter
Nov 28
Full
Dec 6
Last Quarter
Dec 13
New
Dec 20
First Quarter

Hourly Weather History & Observations

Time (WET) Temp. Dew Point Humidity Pressure Visibility Wind Dir Wind Speed Gust Speed Precip Events Conditions
2:00 AM 51.8 °F 50.0 °F 94% 30.06 in - ENE 5.8 mph - N/A   Clear
3:00 AM 52 °F 50 °F 91% 30.05 in 6 mi ENE 6.9 mph - -   Clear
3:00 AM 51.8 °F 50.0 °F 94% 30.04 in - ENE 6.9 mph - N/A   Clear
4:00 AM 51.8 °F 50.0 °F 94% 30.04 in - NNE 3.5 mph - N/A   Clear
5:00 AM 50.0 °F 48.2 °F 94% 30.04 in - Variable 1.2 mph - N/A   Unknown
6:00 AM 54 °F 50 °F 83% 30.03 in - NE 9.2 mph - -  
6:00 AM 53.6 °F 50.0 °F 88% 30.01 in - NE 9.2 mph - N/A   Unknown
7:00 AM 53.6 °F 50.0 °F 88% 30.01 in - ESE 5.8 mph - N/A   Clear
8:00 AM 50.0 °F 48.2 °F 94% 30.04 in - East 6.9 mph - N/A   Clear
9:00 AM 59 °F 50 °F 65% 30.04 in 6 mi ENE 6.9 mph - -  
9:00 AM 59.0 °F 50.0 °F 72% 30.04 in 6.2 mi ENE 6.9 mph - N/A   Unknown
10:00 AM 59.0 °F 51.8 °F 77% 30.04 in - ENE 6.9 mph - N/A   Clear
11:00 AM 69.8 °F 51.8 °F 53% 30.04 in - NNE 4.6 mph - N/A   Clear
12:00 PM 72 °F 53 °F 41% 30.01 in 6 mi West 8.1 mph - -  
12:00 PM 71.6 °F 53.6 °F 53% 30.01 in - West 8.1 mph - N/A   Clear
1:00 PM 73.4 °F 55.4 °F 53% 29.98 in - Calm Calm - N/A   Clear
3:00 PM 71 °F 58 °F 54% 29.96 in 6 mi West 9.2 mph - -   Partly Cloudy
3:00 PM 71.6 °F 57.2 °F 60% 29.95 in - West 9.2 mph - N/A   Clear
4:00 PM 68.0 °F 53.6 °F 60% 29.98 in - West 13.8 mph - N/A   Clear
7:00 PM 60.8 °F 57.2 °F 88% 30.01 in - South 4.6 mph - N/A   Clear
8:00 PM 60.8 °F 57.2 °F 88% 30.04 in - South 4.6 mph - N/A   Clear
9:00 PM 61 °F 57 °F 82% 30.06 in 6 mi South 3.5 mph - -   Partly Cloudy
9:00 PM 60.8 °F 57.2 °F 88% 30.04 in - South 3.5 mph - N/A   Clear
10:00 PM 60.8 °F 57.2 °F 88% 30.04 in - Calm Calm - N/A   Clear
11:00 PM 59.0 °F 57.2 °F 94% 30.06 in - NE 3.5 mph - N/A   Clear